DECAYED
Showing default

AII-CHARLIE, 47440 (Decayed)

Orbit data source: Space-Track

AII-CHARLIE, 47440 was a Lithuanian payload satellite in LEO that was launched on Sun, 24 Jan 2021 UTC via an FALCON 9 launch vehicle from the Air Force Eastern Test Range (AFETR). Payload-class satellites include a variety of spacecraft equipped with specific instruments for various scientific and technological missions. These include communications satellites like Starlink; space stations such as the ISS; scientific satellites like the Hubble; Earth observation satellites from companies like Planet Labs, Umbra, and HawkEye 360; GPS; miniature CubeSats for education and research; and military/defense satellites.

Not visible in the next 10 days
Identifier
47440, 2021-006AD
Orbit
Decayed
Last TLE update
11 months ago
Origin
Manufacturer
NanoAvionics US
Mission
Decayed Commercial Sigint
Bus & Motor
CUBESAT 6U, Unknown motor
Mass
~10 kg wet, ~10 kg dry
Launch date (UTC)
2021-01-24 (4 years ago)
Launch vehicle
FALCON 9
Launch site
Air Force Eastern Test Range (AFETR)
Object type
Payload
Rocket body
Debris
Shape & HBR
Box + 2 Pan, 0.6 m
Radar Cross Section
0.104 m², Small (<0.1 m²)

Expand to show TLE details & history

TLE from 11 months ago
0 AII-CHARLIE
1 47440U 21006AD  24219.45521343  .13297423  25095-5  30070-3 0  9993
2 47440  97.2886 287.9162 0014488 267.0731  92.8914 16.45301543196985
Epoch: 2024-08-06T10:55Z
TLE epoch observation values (Epoch: 2024-08-06T10:55:30.44Z)
Latitude
0.00003°
Longitude
168.56693°
Altitude
155.49 km
Speed
7.813 km/s
True Right ascension
19h 11m 39s
True Declination
0° 00' 00"
Sunlit
Object was in full shadow at epoch
Visualization orbit readout
Visualization observer readout
Orbital elements
Apogee altitude
157.989 km
Perigee altitude
139.077 km
Semi-major axis
6,526.67 km
Eccentricity
0.00145
Inclination
97.2886°
RAAN
287.9162°
Arg. of periapsis
267.0731°
True anomaly
Unknown
Mean anomaly
92.8914°
Eccentric anomaly
Unknown
Mean motion
4.11629 °/min
Orbital period
87.46 mins
BSTAR
0.0003007
Loading maneuver chart data...
Loading SW <> Apogee altitude chart data...

AII-CHARLIE Visibility

Observer location: undefined°, undefined°

This satellite is decayed
Span
Click to sort rows by Start time (UTC) header in descending order
Start Az.
Max El. time (UTC)
Max El. Az.
Max El.
End time (UTC)
End Az.
|